[[{"header":{"parameterUnit":"m.s-1","parameterCategory":1,"la1":30.2991,"la2":30.254,"lo1":-89.0895,"lo2":-89.0444,"dy":0.0017,"dx":0.0017,"nx":28,"ny":28,"refTime":"2024-03-27T09:00:00:Z","depth":0,"parameterNumber":2,"parameterNumberName":"U-component_of_WINDS"},"data":[0,0,0,0,0,0,0,0,0,0,0,0,0,0,0,0,0,0,0,0,0,0,0,0,0,0,0,0,0,0,0,0,0,0,0,0,0,0,0,0,0,0,0,0,0,0,0,0,0,0,0,0,0,0,0,0,0,0,-0.1378,-0.1378,0,-0.1387,-0.1387,-0.1387,-0.1396,-0.1396,-0.1397,-0.1397,-0.1406,-0.1406,-0.1406,0,0,0,0,0,0,0,0,0,0,0,0,0,-0.1366,-0.1366,-0.1378,-0.1378,-0.1378,-0.1387,-0.1387,-0.1387,-0.1396,-0.1396,-0.1397,-0.1397,-0.1406,-0.1406,-0.1406,0,0,0,0,0,0,0,0,0,0,0,0,0,-0.1373,-0.1366,-0.1378,-0.1384,-0.1384,-0.1387,-0.1387,-0.1387,-0.1396,-0.1396,-0.1397,-0.1397,-0.1406,-0.1406,-0.1406,-0.1404,0,0,-0.1407,-0.1407,0,0,0,0,0,0,0,0,-0.1373,-0.1373,-0.1383,-0.1383,-0.1384,-0.1391,-0.1387,-0.1393,-0.1396,-0.1392,-0.1397,-0.1397,-0.1401,-0.1401,-0.1403,-0.1405,-0.1405,-0.1407,-0.1407,-0.1407,-0.1407,0,0,0,0,0,0,0,-0.1372,-0.1373,-0.1381,-0.1383,-0.1383,-0.1385,-0.1386,-0.1388,-0.1395,-0.1392,-0.1393,-0.1394,-0.1401,-0.1403,-0.1403,-0.1405,-0.1407,-0.1407,-0.1407,-0.1407,-0.1404,-0.1404,0,0,0,0,0,0,-0.1371,-0.1373,-0.1381,-0.1382,-0.1378,-0.1385,-0.1387,-0.1388,-0.1395,-0.1396,-0.1394,-0.1394,-0.1402,-0.1403,-0.1403,-0.1401,-0.1407,-0.1407,-0.1407,-0.1405,-0.1404,-0.1404,0,0,0,0,0,0,-0.1371,-0.1372,-0.1381,-0.1377,-0.1379,-0.1385,-0.1387,-0.1388,-0.139,-0.1396,-0.1398,-0.1394,-0.1402,-0.1403,-0.1404,-0.1401,-0.1407,-0.1408,-0.1405,-0.1404,-0.1404,-0.1396,0,0,0,0,0,0,-0.137,-0.1371,-0.1371,-0.1377,-0.1379,-0.1381,-0.1387,-0.1389,-0.139,-0.1391,-0.1397,-0.1398,-0.1402,-0.1403,-0.1404,-0.1402,-0.1408,-0.1405,-0.1405,-0.1404,-0.1396,-0.1395,-0.1394,0,0,0,0,0,-0.137,-0.1369,-0.1371,-0.1372,-0.1379,-0.1381,-0.1382,-0.1387,-0.139,-0.139,-0.1393,-0.1398,-0.1401,-0.1403,-0.1404,-0.1402,-0.1405,-0.1405,-0.1404,-0.1397,-0.1395,-0.1394,0,0,0,0,0,0,-0.1362,-0.137,-0.1372,-0.1373,-0.1376,-0.1383,-0.1382,-0.1386,-0.1389,-0.1389,-0.1395,-0.1397,-0.1396,-0.1399,-0.1401,-0.1399,-0.1404,-0.1403,-0.1398,-0.1397,-0.1396,-0.1395,-0.1408,0,0,0,0,0,-0.136,-0.1362,-0.1368,-0.1369,-0.137,-0.1376,-0.1377,-0.1381,-0.1384,-0.1386,-0.139,-0.1393,-0.1395,-0.1396,-0.1398,-0.1396,-0.1397,-0.1395,-0.1394,-0.1393,-0.1393,-0.1392,-0.139,-0.1403,-0.1403,-0.1403,0,0,-0.1357,-0.1361,-0.1362,-0.1367,-0.137,-0.1371,-0.1377,-0.1378,-0.1379,-0.1386,-0.1387,-0.139,-0.1393,-0.1393,-0.1393,-0.1395,-0.139,-0.1393,-0.1392,-0.1392,-0.1391,-0.139,-0.1389,-0.1402,-0.1402,-0.1402,0,0,-0.1352,-0.1356,-0.1356,-0.1358,-0.1363,-0.1366,-0.1366,-0.1371,-0.1374,-0.1374,-0.1379,-0.138,-0.1383,-0.1385,-0.1387,-0.138,-0.1384,-0.1381,-0.1376,-0.1374,-0.1373,-0.1372,-0.137,-0.1369,-0.138,-0.138,-0.138,0,-0.1348,-0.135,-0.1355,-0.1356,-0.1357,-0.1363,-0.1363,-0.1365,-0.137,-0.1371,-0.1373,-0.1376,-0.1379,-0.1379,-0.1377,-0.1378,-0.1378,-0.1381,-0.1373,-0.1372,-0.1372,-0.1369,-0.1368,-0.138,-0.138,-0.138,-0.138,0,-0.1344,-0.1345,-0.1345,-0.1349,-0.135,-0.135,-0.1355,-0.1356,-0.1359,-0.1362,-0.1362,-0.1365,-0.1368,-0.1368,-0.1371,-0.1367,-0.1369,-0.1372,-0.1376,-0.137,-0.1367,-0.1367,-0.1379,-0.1379,-0.138,-0.138,0,0,-0.1335,-0.1341,-0.1341,-0.1342,-0.1347,-0.1348,-0.1348,-0.135,-0.135,-0.1352,-0.1352,-0.1354,-0.1356,-0.1358,-0.1361,-0.136,-0.1354,-0.1363,-0.1364,-0.1361,-0.1349,-0.1347,-0.1346,-0.1356,-0.1356,-0.1356,-0.1349,0,-0.1331,-0.1331,-0.1335,-0.1334,-0.1335,-0.134,-0.134,-0.1342,-0.1345,-0.1345,-0.1348,-0.1349,-0.1353,-0.1353,-0.1352,-0.1355,-0.1352,-0.1356,-0.1356,-0.1355,-0.1355,-0.1344,-0.1342,-0.1335,-0.1348,-0.1348,-0.1348,0,-0.1326,-0.1328,-0.1327,-0.133,-0.1331,-0.133,-0.1332,-0.1333,-0.1335,-0.1337,-0.1338,-0.1341,-0.134,-0.1344,-0.1343,-0.1346,-0.1346,-0.1347,-0.1347,-0.1347,-0.1351,-0.1344,-0.1333,-0.1332,-0.1346,-0.1346,-0.1347,0,-0.1319,-0.1321,-0.1321,-0.1322,-0.1326,-0.1325,-0.1327,-0.1329,-0.133,-0.1331,-0.1331,-0.1333,-0.1333,-0.1333,-0.1337,-0.1339,-0.1335,-0.1339,-0.1336,-0.1335,-0.1335,-0.1335,-0.1323,-0.1335,-0.1335,-0.1335,-0.1335,0,-0.1314,-0.1313,-0.1318,-0.1318,-0.1316,-0.132,-0.1319,-0.1321,-0.1323,-0.1322,-0.1327,-0.1326,-0.133,-0.133,-0.1332,-0.133,-0.1331,-0.1332,-0.1332,-0.1331,-0.1331,-0.1332,-0.1332,-0.1335,-0.1335,-0.1335,-0.1335,0,-0.1306,-0.131,-0.1309,-0.1313,-0.1313,-0.1312,-0.1315,-0.1315,-0.1317,-0.1316,-0.1316,-0.132,-0.1319,-0.1322,-0.1323,-0.1324,-0.1321,-0.1323,-0.132,-0.1321,-0.1317,-0.1317,-0.1306,-0.1304,-0.1316,-0.1316,-0.1316,0,-0.1303,-0.1302,-0.1305,-0.1305,-0.1306,-0.1307,-0.1307,-0.1311,-0.1311,-0.1312,-0.1311,-0.1311,-0.1312,-0.1311,-0.1313,-0.1313,-0.1314,-0.131,-0.1314,-0.1313,-0.1314,-0.1314,-0.1313,-0.1309,-0.1309,-0.1309,-0.1309,0,-0.1296,-0.1297,-0.1298,-0.1298,-0.1299,-0.13,-0.1301,-0.13,-0.1304,-0.1304,-0.1303,-0.1303,-0.1303,-0.1303,-0.1303,-0.1304,-0.1307,-0.1307,-0.1306,-0.1306,-0.1304,-0.1304,-0.1318,-0.1308,-0.1308,-0.1308,-0.1308,-0.1308,-0.129,-0.1289,-0.1291,-0.1291,-0.1292,-0.1293,-0.1292,-0.1294,-0.1294,-0.1294,-0.1296,-0.1295,-0.1296,-0.1296,-0.1296,-0.1295,-0.1297,-0.1296,-0.1296,-0.1295,-0.1295,-0.1304,-0.1295,-0.1295,-0.1295,-0.1295,-0.1295,0,-0.1283,-0.1284,-0.1284,-0.1285,-0.1285,-0.1287,-0.1288,-0.1288,-0.1287,-0.1287,-0.1287,-0.1286,-0.1285,-0.1287,-0.1286,-0.1285,-0.1286,-0.1285,-0.1285,-0.1285,-0.1293,-0.1294,-0.1284,-0.1284,-0.1284,-0.1284,-0.1284,-0.1284,-0.128,-0.1278,-0.1279,-0.1278,-0.1279,-0.1278,-0.1278,-0.1278,-0.1279,-0.1277,-0.1277,-0.1278,-0.1278,-0.1277,-0.1277,-0.1277,-0.1276,-0.1274,-0.1275,-0.1283,-0.1284,-0.1285,-0.1286,-0.1274,-0.1274,-0.1267,-0.1267,-0.1267]},{"header":{"parameterUnit":"m.s-1","parameterCategory":1,"la1":30.2991,"la2":30.254,"lo1":-89.0895,"lo2":-89.0444,"dy":0.0017,"dx":0.0017,"nx":28,"ny":28,"refTime":"2024-03-27T09:00:00:Z","depth":0,"parameterNumber":3,"parameterNumberName":"V-component_of_WINDS"},"data":[0,0,0,0,0,0,0,0,0,0,0,0,0,0,0,0,0,0,0,0,0,0,0,0,0,0,0,0,0,0,0,0,0,0,0,0,0,0,0,0,0,0,0,0,0,0,0,0,0,0,0,0,0,0,0,0,0,0,-6.8281,-6.8283,0,-6.8403,-6.8405,-6.8406,-6.8369,-6.8367,-6.8364,-6.8362,-6.848,-6.8486,-6.8491,0,0,0,0,0,0,0,0,0,0,0,0,0,-6.8012,-6.8017,-6.8281,-6.8283,-6.8284,-6.8403,-6.8405,-6.8406,-6.837,-6.8367,-6.8363,-6.8361,-6.8479,-6.8485,-6.8492,0,0,0,0,0,0,0,0,0,0,0,0,0,-6.8131,-6.8019,-6.8281,-6.828,-6.8282,-6.8403,-6.8405,-6.8407,-6.837,-6.8366,-6.8363,-6.8359,-6.8476,-6.8484,-6.8493,-6.862,0,0,-6.8518,-6.8521,0,0,0,0,0,0,0,0,-6.8124,-6.814,-6.8279,-6.8281,-6.8282,-6.8367,-6.8353,-6.8478,-6.8371,-6.8336,-6.8362,-6.8357,-6.8445,-6.8456,-6.8487,-6.8625,-6.863,-6.8519,-6.8524,-6.8527,-6.8529,0,0,0,0,0,0,0,-6.8116,-6.8135,-6.8329,-6.8281,-6.8283,-6.8273,-6.8285,-6.8377,-6.841,-6.8339,-6.8337,-6.8352,-6.8445,-6.8479,-6.8489,-6.8632,-6.8518,-6.8526,-6.8531,-6.8534,-6.8882,-6.8886,0,0,0,0,0,0,-6.8107,-6.8128,-6.8325,-6.8333,-6.8192,-6.8281,-6.8295,-6.8344,-6.8409,-6.8416,-6.8355,-6.835,-6.8467,-6.848,-6.8493,-6.8648,-6.8527,-6.8535,-6.854,-6.8878,-6.8883,-6.8888,0,0,0,0,0,0,-6.8101,-6.8125,-6.832,-6.823,-6.8254,-6.8289,-6.8345,-6.8348,-6.8382,-6.8422,-6.8427,-6.8384,-6.8464,-6.8482,-6.8589,-6.8652,-6.8539,-6.8546,-6.8873,-6.8879,-6.8885,-6.8957,0,0,0,0,0,0,-6.8094,-6.8123,-6.8173,-6.8232,-6.8259,-6.8416,-6.8348,-6.8353,-6.8397,-6.8391,-6.845,-6.8456,-6.8463,-6.8577,-6.8598,-6.8661,-6.8553,-6.8867,-6.8876,-6.8883,-6.895,-6.8965,-6.8979,0,0,0,0,0,-6.8084,-6.8187,-6.8176,-6.82,-6.8323,-6.842,-6.8435,-6.8443,-6.8402,-6.8452,-6.8478,-6.8454,-6.8641,-6.8589,-6.8611,-6.8678,-6.8863,-6.8873,-6.8883,-6.8943,-6.8962,-6.8979,0,0,0,0,0,0,-6.8131,-6.8194,-6.8183,-6.8307,-6.8359,-6.8413,-6.8476,-6.8463,-6.8525,-6.8517,-6.8522,-6.8536,-6.8646,-6.8672,-6.8613,-6.8805,-6.8746,-6.8761,-6.8784,-6.8803,-6.8817,-6.8809,-6.8559,0,0,0,0,0,-6.8157,-6.8232,-6.8282,-6.8387,-6.8414,-6.8441,-6.8483,-6.8485,-6.8538,-6.8559,-6.8592,-6.8643,-6.8713,-6.8759,-6.8826,-6.8953,-6.8965,-6.901,-6.9025,-6.9037,-6.9049,-6.912,-6.914,-6.8919,-6.8919,-6.8919,0,0,-6.8209,-6.8252,-6.8299,-6.8398,-6.8438,-6.8515,-6.8459,-6.8542,-6.86,-6.8571,-6.8676,-6.8702,-6.8758,-6.8877,-6.893,-6.8902,-6.9113,-6.9049,-6.9058,-6.9064,-6.9132,-6.9153,-6.9171,-6.8926,-6.8925,-6.8924,0,0,-6.8344,-6.8384,-6.8477,-6.852,-6.8582,-6.86,-6.8622,-6.868,-6.8697,-6.8803,-6.8783,-6.885,-6.897,-6.9012,-6.9049,-6.9202,-6.9183,-6.9224,-6.9301,-6.9369,-6.9387,-6.9402,-6.9458,-6.9478,-6.9236,-6.9236,-6.9236,0,-6.84,-6.8518,-6.8526,-6.8613,-6.8657,-6.8637,-6.8731,-6.877,-6.885,-6.8881,-6.8848,-6.9001,-6.9037,-6.9166,-6.9204,-6.9234,-6.9259,-6.9217,-6.9384,-6.94,-6.9414,-6.9467,-6.9488,-6.9241,-6.924,-6.924,-6.9239,0,-6.8585,-6.8666,-6.8733,-6.8815,-6.8866,-6.8956,-6.8977,-6.9027,-6.9025,-6.9046,-6.9154,-6.9197,-6.9273,-6.9304,-6.9301,-6.9433,-6.9413,-6.9382,-6.9323,-6.944,-6.949,-6.951,-6.9247,-6.9246,-6.9244,-6.9243,0,0,-6.8752,-6.8839,-6.8863,-6.8901,-6.8969,-6.9032,-6.912,-6.9197,-6.9241,-6.9297,-6.9371,-6.9475,-6.9448,-6.949,-6.9492,-6.9552,-6.9672,-6.9514,-6.9515,-6.9543,-6.9821,-6.9845,-6.9869,-6.966,-6.9664,-6.9667,-6.9817,0,-6.8894,-6.9052,-6.9063,-6.9206,-6.9282,-6.9265,-6.9342,-6.9391,-6.9413,-6.948,-6.9502,-6.9577,-6.9534,-6.956,-6.9619,-6.9645,-6.9728,-6.9634,-6.9728,-6.9732,-6.9716,-6.9894,-6.992,-7.0059,-6.9836,-6.984,-6.9842,0,-6.908,-6.9146,-6.9297,-6.9357,-6.9389,-6.9458,-6.9531,-6.9594,-6.965,-6.9662,-6.971,-6.9704,-6.9794,-6.9732,-6.9856,-6.9792,-6.983,-6.9849,-6.9855,-6.9864,-6.9795,-6.991,-7.0104,-7.0125,-6.9873,-6.987,-6.9868,0,-6.9189,-6.9314,-6.9422,-6.9454,-6.9526,-6.9575,-6.9607,-6.9659,-6.9706,-6.9768,-6.9798,-6.9869,-6.9908,-6.9963,-6.9976,-6.9929,-7.01,-7.0038,-7.0112,-7.0112,-7.0149,-7.0147,-7.0353,-7.0173,-7.0172,-7.0172,-7.0171,0,-6.9347,-6.944,-6.9472,-6.9538,-6.9642,-6.9653,-6.9755,-6.9783,-6.9831,-6.9901,-6.9889,-6.9955,-6.9968,-7.0036,-7.0046,-7.0148,-7.0165,-7.0176,-7.0178,-7.0178,-7.0177,-7.0204,-7.0195,-7.0177,-7.0176,-7.0175,-7.0174,0,-6.9486,-6.9511,-6.9627,-6.9687,-6.9704,-6.9778,-6.9828,-6.9891,-6.9912,-7.0002,-7.0023,-7.0056,-7.0136,-7.0154,-7.0248,-7.0255,-7.0376,-7.0367,-7.0358,-7.0358,-7.0431,-7.0424,-7.0663,-7.0695,-7.0492,-7.0494,-7.0496,0,-6.9586,-6.9658,-6.9726,-6.9774,-6.9809,-6.9885,-6.9934,-6.9947,-6.9997,-7.0068,-7.0122,-7.0201,-7.0266,-7.0394,-7.0425,-7.0497,-7.0491,-7.0569,-7.0501,-7.05,-7.0494,-7.049,-7.0497,-7.0583,-7.0585,-7.0586,-7.0588,0,-6.976,-6.977,-6.9841,-6.9917,-6.9976,-7.0036,-7.0093,-7.0132,-7.0153,-7.021,-7.0293,-7.0344,-7.0441,-7.052,-7.0593,-7.0624,-7.061,-7.0609,-7.063,-7.0632,-7.0624,-7.0631,-7.0395,-7.0604,-7.0602,-7.0601,-7.06,-7.0599,-6.9884,-6.9948,-7.0007,-7.0087,-7.0132,-7.0186,-7.0249,-7.028,-7.035,-7.0433,-7.0436,-7.0527,-7.0581,-7.0678,-7.0714,-7.0784,-7.0759,-7.0789,-7.0797,-7.0805,-7.0812,-7.0612,-7.0797,-7.0796,-7.0796,-7.0796,-7.0795,0,-7.0059,-7.0097,-7.0171,-7.0253,-7.0316,-7.03,-7.0362,-7.0415,-7.0497,-7.055,-7.0614,-7.0711,-7.0787,-7.0825,-7.0901,-7.095,-7.0946,-7.097,-7.0966,-7.0974,-7.0829,-7.0804,-7.0972,-7.0972,-7.0972,-7.0972,-7.0972,-7.0972,-7.0158,-7.0266,-7.0283,-7.0413,-7.045,-7.0541,-7.0579,-7.0628,-7.0671,-7.078,-7.0845,-7.087,-7.0918,-7.0997,-7.1067,-7.1076,-7.1104,-7.1132,-7.1138,-7.1002,-7.0984,-7.0967,-7.0943,-7.1138,-7.1138,-7.1277,-7.1278,-7.1279]}]]